Time,TemperatureF,DewpointF,PressureIn,WindDirection,WindDirectionDegrees,WindSpeedMPH,WindSpeedGustMPH,Humidity,HourlyPrecipIn,Conditions,Clouds,dailyrainin,SolarRadiationWatts/m^2,SoftwareType,DateUTC
2013-08-14 00:13:00,54.2,50.0,30.08,NW,307,2.0,-999.0,85,-99.99,,,0.00,0,weatherlink.com 1.10,2013-08-14 04:13:00,
2013-08-14 00:27:00,53.9,50.0,30.08,NNW,332,2.0,-999.0,86,-99.99,,,0.00,0,weatherlink.com 1.10,2013-08-14 04:27:00,
2013-08-14 00:43:00,54.0,50.0,30.08,NW,320,1.0,-999.0,85,-99.99,,,0.00,0,weatherlink.com 1.10,2013-08-14 04:43:00,
2013-08-14 00:58:00,53.7,50.0,30.09,NW,322,0.0,-999.0,86,-99.99,,,0.00,0,weatherlink.com 1.10,2013-08-14 04:58:00,
2013-08-14 01:13:00,53.2,50.0,30.09,NW,322,2.0,-999.0,87,-99.99,,,0.00,0,weatherlink.com 1.10,2013-08-14 05:13:00,
2013-08-14 01:28:00,52.9,49.0,30.09,NNW,332,1.0,-999.0,87,-99.99,,,0.00,0,weatherlink.com 1.10,2013-08-14 05:28:00,
2013-08-14 01:43:00,52.6,49.0,30.09,NW,312,2.0,-999.0,88,-99.99,,,0.00,0,weatherlink.com 1.10,2013-08-14 05:43:00,
2013-08-14 01:58:00,52.4,49.0,30.09,NW,325,4.0,-999.0,89,-99.99,,,0.00,0,weatherlink.com 1.10,2013-08-14 05:58:00,
2013-08-14 02:13:00,52.6,49.0,30.09,NW,305,3.0,-999.0,88,-99.99,,,0.00,0,weatherlink.com 1.10,2013-08-14 06:13:00,
2013-08-14 02:28:00,52.4,49.0,30.09,NW,309,1.0,-999.0,88,-99.99,,,0.00,0,weatherlink.com 1.10,2013-08-14 06:28:00,
2013-08-14 02:43:00,52.1,49.0,30.09,NW,308,1.0,-999.0,89,-99.99,,,0.00,0,weatherlink.com 1.10,2013-08-14 06:43:00,
2013-08-14 02:58:00,51.9,49.0,30.09,NW,320,3.0,-999.0,90,-99.99,,,0.00,0,weatherlink.com 1.10,2013-08-14 06:58:00,
2013-08-14 03:13:00,51.8,49.0,30.09,NW,312,1.0,-999.0,90,-99.99,,,0.00,0,weatherlink.com 1.10,2013-08-14 07:13:00,
2013-08-14 03:28:00,51.7,49.0,30.10,NW,324,3.0,-999.0,91,-99.99,,,0.00,0,weatherlink.com 1.10,2013-08-14 07:28:00,
2013-08-14 03:43:00,51.4,49.0,30.10,NW,312,2.0,-999.0,91,-99.99,,,0.00,0,weatherlink.com 1.10,2013-08-14 07:43:00,
2013-08-14 03:58:00,51.0,49.0,30.10,North,4,4.0,-999.0,91,-99.99,,,0.00,0,weatherlink.com 1.10,2013-08-14 07:58:00,
2013-08-14 04:13:00,50.9,49.0,30.10,North,359,4.0,-999.0,92,-99.99,,,0.00,0,weatherlink.com 1.10,2013-08-14 08:13:00,
2013-08-14 04:27:00,51.1,49.0,30.10,North,354,3.0,-999.0,92,-99.99,,,0.00,0,weatherlink.com 1.10,2013-08-14 08:27:00,
2013-08-14 04:43:00,50.7,49.0,30.10,NNW,328,2.0,-999.0,92,-99.99,,,0.00,0,weatherlink.com 1.10,2013-08-14 08:43:00,
2013-08-14 04:58:00,50.3,48.0,30.10,NNW,346,3.0,-999.0,92,-99.99,,,0.00,0,weatherlink.com 1.10,2013-08-14 08:58:00,
2013-08-14 05:13:00,50.1,48.0,30.11,North,349,4.0,-999.0,92,-99.99,,,0.00,0,weatherlink.com 1.10,2013-08-14 09:13:00,
2013-08-14 05:28:00,50.3,48.0,30.11,North,4,3.0,-999.0,92,-99.99,,,0.00,0,weatherlink.com 1.10,2013-08-14 09:28:00,
2013-08-14 05:43:00,50.2,48.0,30.12,NNW,345,0.0,-999.0,92,-99.99,,,0.00,0,weatherlink.com 1.10,2013-08-14 09:43:00,
2013-08-14 05:58:00,49.9,48.0,30.12,NNW,345,0.0,-999.0,92,-99.99,,,0.00,0,weatherlink.com 1.10,2013-08-14 09:58:00,
2013-08-14 06:13:00,49.7,48.0,30.12,NNW,345,0.0,-999.0,92,-99.99,,,0.00,0,weatherlink.com 1.10,2013-08-14 10:13:00,
2013-08-14 06:28:00,49.2,47.0,30.13,NNW,345,0.0,-999.0,92,-99.99,,,0.00,0,weatherlink.com 1.10,2013-08-14 10:28:00,
2013-08-14 06:43:00,48.7,47.0,30.13,NNW,345,0.0,-999.0,93,-99.99,,,0.00,0,weatherlink.com 1.10,2013-08-14 10:43:00,
2013-08-14 06:58:00,48.5,47.0,30.14,NNW,345,0.0,-999.0,94,-99.99,,,0.00,5,weatherlink.com 1.10,2013-08-14 10:58:00,
2013-08-14 07:13:00,48.1,46.0,30.14,NNW,345,0.0,-999.0,93,-99.99,,,0.00,11,weatherlink.com 1.10,2013-08-14 11:13:00,
2013-08-14 07:28:00,48.3,47.0,30.15,NNW,345,0.0,-999.0,94,-99.99,,,0.00,35,weatherlink.com 1.10,2013-08-14 11:28:00,
2013-08-14 07:43:00,49.4,48.0,30.16,NNW,345,0.0,-999.0,94,-99.99,,,0.00,76,weatherlink.com 1.10,2013-08-14 11:43:00,
2013-08-14 07:58:00,50.5,48.0,30.16,North,354,2.0,-999.0,92,-99.99,,,0.00,121,weatherlink.com 1.10,2013-08-14 11:58:00,
2013-08-14 08:13:00,51.4,49.0,30.16,North,359,1.0,-999.0,91,-99.99,,,0.00,158,weatherlink.com 1.10,2013-08-14 12:13:00,
2013-08-14 08:27:00,52.4,50.0,30.17,North,359,2.0,-999.0,90,-99.99,,,0.00,199,weatherlink.com 1.10,2013-08-14 12:27:00,
2013-08-14 08:43:00,53.1,49.0,30.17,North,4,3.0,-999.0,87,-99.99,,,0.00,244,weatherlink.com 1.10,2013-08-14 12:43:00,
2013-08-14 08:58:00,54.3,50.0,30.17,NNE,21,4.0,-999.0,86,-99.99,,,0.00,292,weatherlink.com 1.10,2013-08-14 12:58:00,
2013-08-14 09:13:00,55.6,51.0,30.18,NNE,18,4.0,-999.0,85,-99.99,,,0.00,338,weatherlink.com 1.10,2013-08-14 13:13:00,
2013-08-14 09:28:00,56.6,51.0,30.18,NNW,328,5.0,-999.0,82,-99.99,,,0.00,385,weatherlink.com 1.10,2013-08-14 13:28:00,
2013-08-14 09:43:00,57.3,51.0,30.17,NNW,345,3.0,-999.0,80,-99.99,,,0.00,431,weatherlink.com 1.10,2013-08-14 13:43:00,
2013-08-14 09:58:00,58.0,51.0,30.17,North,4,6.0,-999.0,77,-99.99,,,0.00,476,weatherlink.com 1.10,2013-08-14 13:58:00,
2013-08-14 10:13:00,58.5,50.0,30.18,North,359,9.0,-999.0,74,-99.99,,,0.00,520,weatherlink.com 1.10,2013-08-14 14:13:00,
2013-08-14 10:28:00,59.0,50.0,30.18,NNE,16,9.0,-999.0,71,-99.99,,,0.00,561,weatherlink.com 1.10,2013-08-14 14:28:00,
2013-08-14 10:43:00,60.0,51.0,30.18,North,4,5.0,-999.0,73,-99.99,,,0.00,610,weatherlink.com 1.10,2013-08-14 14:43:00,
2013-08-14 10:58:00,60.5,51.0,30.18,NNW,328,6.0,-999.0,70,-99.99,,,0.00,673,weatherlink.com 1.10,2013-08-14 14:58:00,
2013-08-14 11:13:00,61.1,52.0,30.19,North,359,9.0,-999.0,72,-99.99,,,0.00,752,weatherlink.com 1.10,2013-08-14 15:13:00,
2013-08-14 11:28:00,61.8,51.0,30.19,NNE,27,7.0,-999.0,68,-99.99,,,0.00,756,weatherlink.com 1.10,2013-08-14 15:28:00,
2013-08-14 11:43:00,62.8,50.0,30.19,NNE,29,8.0,-999.0,64,-99.99,,,0.00,863,weatherlink.com 1.10,2013-08-14 15:43:00,
2013-08-14 11:58:00,63.2,51.0,30.18,NNW,340,7.0,-999.0,64,-99.99,,,0.00,940,weatherlink.com 1.10,2013-08-14 15:58:00,
2013-08-14 12:13:00,62.1,51.0,30.18,North,359,4.0,-999.0,66,-99.99,,,0.00,900,weatherlink.com 1.10,2013-08-14 16:13:00,
2013-08-14 12:27:00,62.7,50.0,30.18,NW,325,6.0,-999.0,63,-99.99,,,0.00,1025,weatherlink.com 1.10,2013-08-14 16:27:00,
2013-08-14 12:42:00,63.1,48.0,30.17,North,11,2.0,-999.0,59,-99.99,,,0.00,926,weatherlink.com 1.10,2013-08-14 16:42:00,
2013-08-14 12:57:00,64.9,51.0,30.17,NNE,25,13.0,-999.0,60,-99.99,,,0.00,640,weatherlink.com 1.10,2013-08-14 16:57:00,
2013-08-14 13:12:00,63.5,49.0,30.17,NW,309,3.0,-999.0,60,-99.99,,,0.00,693,weatherlink.com 1.10,2013-08-14 17:12:00,
2013-08-14 13:27:00,64.7,50.0,30.17,NNE,23,14.0,-999.0,59,-99.99,,,0.00,411,weatherlink.com 1.10,2013-08-14 17:27:00,
2013-08-14 13:42:00,65.6,50.0,30.17,NNE,23,6.0,-999.0,57,-99.99,,,0.00,847,weatherlink.com 1.10,2013-08-14 17:42:00,
2013-08-14 13:57:00,65.6,50.0,30.17,NE,43,6.0,-999.0,57,-99.99,,,0.00,1032,weatherlink.com 1.10,2013-08-14 17:57:00,
2013-08-14 14:12:00,65.6,50.0,30.16,NNW,342,5.0,-999.0,58,-99.99,,,0.00,367,weatherlink.com 1.10,2013-08-14 18:12:00,
2013-08-14 14:27:00,66.0,51.0,30.16,NNE,25,5.0,-999.0,58,-99.99,,,0.00,246,weatherlink.com 1.10,2013-08-14 18:27:00,
2013-08-14 14:42:00,65.8,51.0,30.16,NNE,14,7.0,-999.0,59,-99.99,,,0.00,374,weatherlink.com 1.10,2013-08-14 18:42:00,
2013-08-14 14:57:00,65.4,51.0,30.16,NW,323,2.0,-999.0,59,-99.99,,,0.00,346,weatherlink.com 1.10,2013-08-14 18:57:00,
2013-08-14 15:27:00,67.1,50.0,30.16,ENE,60,3.0,-999.0,54,-99.99,,,0.00,251,weatherlink.com 1.10,2013-08-14 19:27:00,
2013-08-14 15:42:00,67.3,51.0,30.15,NNE,21,3.0,-999.0,56,-99.99,,,0.00,896,weatherlink.com 1.10,2013-08-14 19:42:00,
2013-08-14 15:57:00,67.8,49.0,30.15,NNW,331,5.0,-999.0,52,-99.99,,,0.00,209,weatherlink.com 1.10,2013-08-14 19:57:00,
2013-08-14 16:12:00,68.3,52.0,30.15,NNE,18,6.0,-999.0,57,-99.99,,,0.00,274,weatherlink.com 1.10,2013-08-14 20:12:00,
2013-08-14 16:27:00,67.6,51.0,30.15,ENE,73,1.0,-999.0,55,-99.99,,,0.00,844,weatherlink.com 1.10,2013-08-14 20:27:00,
2013-08-14 16:42:00,68.4,50.0,30.15,NE,53,1.0,-999.0,53,-99.99,,,0.00,153,weatherlink.com 1.10,2013-08-14 20:42:00,
2013-08-14 16:57:00,67.2,52.0,30.15,North,9,0.0,-999.0,59,-99.99,,,0.00,153,weatherlink.com 1.10,2013-08-14 20:57:00,
2013-08-14 17:12:00,67.9,52.0,30.14,North,8,2.0,-999.0,58,-99.99,,,0.00,139,weatherlink.com 1.10,2013-08-14 21:12:00,
2013-08-14 17:27:00,66.7,52.0,30.14,NNW,332,1.0,-999.0,60,-99.99,,,0.00,236,weatherlink.com 1.10,2013-08-14 21:27:00,
2013-08-14 17:42:00,67.2,52.0,30.14,NNW,339,5.0,-999.0,58,-99.99,,,0.00,105,weatherlink.com 1.10,2013-08-14 21:42:00,
2013-08-14 17:57:00,66.1,52.0,30.15,NNW,340,0.0,-999.0,61,-99.99,,,0.00,160,weatherlink.com 1.10,2013-08-14 21:57:00,
2013-08-14 18:12:00,67.6,50.0,30.14,NW,323,1.0,-999.0,54,-99.99,,,0.00,120,weatherlink.com 1.10,2013-08-14 22:12:00,
2013-08-14 18:27:00,66.1,54.0,30.14,NNW,330,0.0,-999.0,66,-99.99,,,0.00,445,weatherlink.com 1.10,2013-08-14 22:27:00,
2013-08-14 18:42:00,68.1,52.0,30.13,NNW,335,0.0,-999.0,56,-99.99,,,0.00,383,weatherlink.com 1.10,2013-08-14 22:42:00,
2013-08-14 18:57:00,69.8,52.0,30.13,West,271,0.0,-999.0,54,-99.99,,,0.00,352,weatherlink.com 1.10,2013-08-14 22:57:00,
2013-08-14 19:12:00,68.9,51.0,30.12,NE,49,3.0,-999.0,54,-99.99,,,0.00,294,weatherlink.com 1.10,2013-08-14 23:12:00,
2013-08-14 19:27:00,68.3,52.0,30.12,NE,43,1.0,-999.0,56,-99.99,,,0.00,186,weatherlink.com 1.10,2013-08-14 23:27:00,
2013-08-14 19:42:00,68.1,56.0,30.12,NE,43,0.0,-999.0,66,-99.99,,,0.00,130,weatherlink.com 1.10,2013-08-14 23:42:00,
2013-08-14 19:57:00,67.9,53.0,30.12,NNE,27,0.0,-999.0,60,-99.99,,,0.00,65,weatherlink.com 1.10,2013-08-14 23:57:00,
2013-08-14 20:12:00,66.5,52.0,30.13,NNE,27,0.0,-999.0,61,-99.99,,,0.00,42,weatherlink.com 1.10,2013-08-15 00:12:00,
2013-08-14 20:27:00,64.9,54.0,30.13,NNE,27,0.0,-999.0,67,-99.99,,,0.00,12,weatherlink.com 1.10,2013-08-15 00:27:00,
2013-08-14 20:42:00,63.0,54.0,30.13,NNE,27,0.0,-999.0,72,-99.99,,,0.00,0,weatherlink.com 1.10,2013-08-15 00:42:00,
2013-08-14 20:57:00,61.5,55.0,30.13,NNE,27,0.0,-999.0,78,-99.99,,,0.00,0,weatherlink.com 1.10,2013-08-15 00:57:00,
2013-08-14 21:12:00,60.1,55.0,30.14,NNE,27,1.0,-999.0,83,-99.99,,,0.00,0,weatherlink.com 1.10,2013-08-15 01:12:00,
2013-08-14 21:27:00,59.2,55.0,30.14,NNE,27,0.0,-999.0,85,-99.99,,,0.00,0,weatherlink.com 1.10,2013-08-15 01:27:00,
2013-08-14 21:42:00,58.7,55.0,30.14,NNE,27,0.0,-999.0,86,-99.99,,,0.00,0,weatherlink.com 1.10,2013-08-15 01:42:00,
2013-08-14 21:57:00,58.3,55.0,30.15,NNE,27,0.0,-999.0,87,-99.99,,,0.00,0,weatherlink.com 1.10,2013-08-15 01:57:00,
2013-08-14 22:12:00,58.3,54.0,30.15,NW,307,2.0,-999.0,86,-99.99,,,0.00,0,weatherlink.com 1.10,2013-08-15 02:12:00,
2013-08-14 22:27:00,58.5,54.0,30.15,NW,320,1.0,-999.0,84,-99.99,,,0.00,0,weatherlink.com 1.10,2013-08-15 02:27:00,
2013-08-14 22:42:00,58.4,54.0,30.15,NW,320,0.0,-999.0,84,-99.99,,,0.00,0,weatherlink.com 1.10,2013-08-15 02:42:00,
2013-08-14 22:57:00,57.7,53.0,30.15,NW,317,0.0,-999.0,85,-99.99,,,0.00,0,weatherlink.com 1.10,2013-08-15 02:57:00,
2013-08-14 23:12:00,56.0,53.0,30.15,NW,317,0.0,-999.0,90,-99.99,,,0.00,0,weatherlink.com 1.10,2013-08-15 03:12:00,
2013-08-14 23:27:00,55.0,53.0,30.15,NW,317,0.0,-999.0,91,-99.99,,,0.00,0,weatherlink.com 1.10,2013-08-15 03:27:00,
2013-08-14 23:42:00,54.4,52.0,30.15,NW,317,0.0,-999.0,92,-99.99,,,0.00,0,weatherlink.com 1.10,2013-08-15 03:42:00,
2013-08-14 23:57:00,53.6,51.0,30.16,NW,317,0.0,-999.0,92,-99.99,,,0.00,0,weatherlink.com 1.10,2013-08-15 03:57:00,